This is the latest recevied weather packets stored in our database for station/object KG7MRB. If no packets are shown the sender has not sent any weather packets the latest 10 day(s).
| Time | Temp. | Humidity | Pressure | Rain* | Wind** | Luminosity | Snow |
|---|---|---|---|---|---|---|---|
| 1778028907 | 18.89° C | 73% | 1031.8 hPa | 0 mm | - | 60 W/m² | - |
| 1778028603 | 19.44° C | 73% | 1031.9 hPa | 0 mm | - | 69 W/m² | - |
| 1778028301 | 19.44° C | 72% | 1031.8 hPa | 0 mm | - | 239 W/m² | - |
| 1778027996 | 19.44° C | 72% | 1031.8 hPa | 0 mm | - | 266 W/m² | - |
| 1778027693 | 19.44° C | 72% | 1031.9 hPa | 0 mm | - | 234 W/m² | - |
| 1778027389 | 20° C | 71% | 1031.9 hPa | 0 mm | - | 276 W/m² | - |
| 1778027085 | 20° C | 71% | 1031.9 hPa | 0 mm | - | 133 W/m² | - |
| 1778026781 | 20° C | 71% | 1032.1 hPa | 0 mm | - | 61 W/m² | - |
| 1778026478 | 20° C | 71% | 1032.1 hPa | 0 mm | - | 63 W/m² | - |
| 1778026175 | 20° C | 70% | 1032.1 hPa | 0 mm | - | 74 W/m² | - |
| 1778025873 | 20.56° C | 69% | 1032 hPa | 0 mm | - | 349 W/m² | - |
| 1778025570 | 20° C | 70% | 1032 hPa | 0 mm | - | 258 W/m² | - |
| 1778025268 | 21.11° C | 68% | 1032 hPa | 0 mm | - | 387 W/m² | - |
| 1778024964 | 20.56° C | 68% | 1032.1 hPa | 0 mm | - | 397 W/m² | - |
| 1778024662 | 20.56° C | 69% | 1032.1 hPa | 0 mm | - | 410 W/m² | - |
| 1778024358 | 21.11° C | 68% | 1032.2 hPa | 0 mm | - | 423 W/m² | - |
| 1778024056 | 21.67° C | 67% | 1032 hPa | 0 mm | - | 435 W/m² | - |
| 1778023754 | 21.11° C | 68% | 1032.2 hPa | 0 mm | - | 445 W/m² | - |
| 1778023451 | 21.11° C | 68% | 1032.3 hPa | 0 mm | - | 457 W/m² | - |
| 1778023148 | 21.67° C | 67% | 1032.4 hPa | 0 mm | - | 468 W/m² | - |
| 1778022845 | 21.11° C | 66% | 1032.4 hPa | 0 mm | - | 480 W/m² | - |
| 1778022543 | 21.11° C | 68% | 1032.4 hPa | 0 mm | - | 492 W/m² | - |
| 1778022241 | 20.56° C | 67% | 1032.4 hPa | 0 mm | - | 500 W/m² | - |
| 1778021937 | 21.11° C | 67% | 1032.5 hPa | 0 mm | - | 511 W/m² | - |
| 1778021634 | 21.11° C | 66% | 1032.4 hPa | 0 mm | - | 522 W/m² | - |
* Rain latest hour (hover to see other rain measurements)
** Current wind speed in m/s (hover to see current wind gust speed)